Weather in Chashchino

Russia / Tambov Oblast     51°49′24″N   42°23′17″E
temp.,
°C
wind,
m/s
gust,
m/s
humid.,
%
clouds,
%
prec.,
mm/h
press.,
hPa
HPBL,
m
19 september, sun
sun1900:00+10ese4850100 0.1 1022580
03:00+9ese4958100 0.3 1021509
06:00+10ese51148100 0.0 1021473
09:00+12ese71042100 0.0 1021619
12:00+15ese81039100 0.0 10201094
15:00+14ese71045100 0.1 10191112
18:00+12e91547100 0.3 1018699
21:00+12ese101744100 0.3 1017768
20 september, mon
mon2000:00+11ese101856100 0.7 1016748
03:00+8ese91981100 3.1 1015711
06:00+8ese91990100 10.6 1014750
09:00+8se81788100 17.9 1014755
12:00+9se71579100 2.0 1014707
15:00+9se81582100 2.9 1014722
18:00+10ese71474100 0.0 1014635
21:00+10se71385100 0.2 1015536
21 september, tue
tue2100:00+10se5118460 0.1 1015434
03:00+9ese5118664 0.2 1014337
06:00+9ese4893100 0.6 1014315
09:00+10ese5985100 0.8 1014349
12:00+16sse347199 0.0 1013909
15:00+17s4559100 0.4 10121076
18:00+14w2379100 0.6 101251
21:00+12ssw117854 0.6 101311
22 september, wed
wed2200:00+11wnw2279100 0.0 101351
03:00+11nnw2281100 0.0 101331
06:00+10nw2283100 0.0 101329
09:00+11nw1179100 0.0 1014147
12:00+15nnw11635 0.0 1014626
15:00+17sse115046 0.1 10141383
18:00+14w336560 0.1 101558
21:00+12wnw247182 0.1 1015118
23 september, thu
thu2300:00+12nnw2272100 0.0 101555
03:00+12nnw117386 0.0 101511
06:00+11sw1174100 0.0 101512
09:00+13wnw116899 0.0 1015255
12:00+17s2445100 0.0 10151323
15:00+18se3739100 0.0 10142026
18:00+15se51065100 0.1 1013331
21:00+14se61175100 0.5 1014594